Погода в Самарканде

Погода в Самарканде : погода сейчас, прогноз погоды и архив. Всё, что Вы хотите узнать о погоде в Самарканде!

Поиск расширенной информации на нашем сайте:

Другие новости

Новости СМИ2

Главная страница сайта

Новости сайта

03.07.2017

Напоминаем, что на нашем специализированном сайте Метеоцентр.Азия вы можете получить высокодетализированные автоматические прогнозы погоды по пунктам России, СНГ и мира в авиационном формате (включающие направление и скорость ветра, видимость, явления погоды, количество и форму облачности, нижнюю и верхнюю границу облачности).


Погода в Самарканде - сегодня

Время (UTC), дата Ветер
(°,м/с) 
Видим.   Явления Облачность Т
(°С)
Тd
(°С)
f(%) Тe
(°С)
Pmin
(гПа)
dP
(гПа)
Po
(мм)
O2
(г/м3)
Тmin Tmax R s Состояние
почвы
21 19.05.18 тихо ()   н/о    9/0 средняя 
[Ac As]
+15.4 +8.5 63 +16  1015  0.5  699  265           
00 20.05.18 340 (С) 20000 м    10/10 600 м кучево-дожд. 
[Cb cap]
+15.8 +7.8 59 +17  1015  0.1  700  265           
03 20.05.18 290 (З) 20000 м  {ливн. осадки}  10/6 600 м кучево-дожд., средняя 
[Cb cap|Ac und]
+18 +5.5 44 +19  1015.6  1.1  700  264  +14.9         
06 20.05.18 320 (СЗ) 20000 м    9/3 600 м средняя 
[Sc|Ac As]
+21.8 +2.5 28 +22  1014.9  0.3  701  261  +14.9    0.0     
09 20.05.18 230 (ЮЗ) 20000 м    8/3 1000 м средняя 
[Sc|Ac As]
+23.4 +2.5 25 +23  1014  -0.5  700  259           
12 20.05.18 230 (ЮЗ) 20000 м    8/3 1000 м средняя 
[Sc|Ac As]
+24 +4 27 +24  1013.7  -0.1  700  259           
15 20.05.18 180 (Ю) 20000 м    9/6 1000 м средняя, верхняя 
[Sc|Ac und|Ci fib]
+21.7 +8 41 +22  1014.7  0.5  701  260    +24.7       
18 20.05.18 140 (ЮВ) н/о    9/0 средняя, верхняя 
[Ac As|Cs]
+18.2 +8.8 54 +20  1015.9  0.2  701  263    +24.7       
21 20.05.18 140 (ЮВ) н/о    10/10 1000 м 
[Sc]
+18.1 +7.1 49 +19  1015.4  -0.6  700  263           
00 21.05.18 140 (ЮВ) 20000 м    10/3 1000 м средняя, верхняя 
[Sc|Ac und|Cs]
+16 +7.8 58 +17  1016.2  0.2  700  265           
03 21.05.18 140 (ЮВ) 20000 м    8/0 средняя, верхняя 
[Ac As|Ci]
+15.9 +9.2 64 +18  1017  0.8  701  265           
06 21.05.18 140 (ЮВ) 20000 м    8/0 средняя, верхняя 
[Cu med, cong|Ac lent|Ci]
+24.5 +6.8 32 +25  1014.1  -0.5  701  258  +14.5         
09 21.05.18 050 (СВ) 20000 м    8/5 1000 м верхняя 
[Cu med, cong|Ci fib]
+25.6 +8.1 33 +26  1012.9  -0.8  700  256           
12 21.05.18 180 (Ю) 20000 м  слаб. ливневой дождь{гроза}  10/10 600 м кучево-дожд. 
[Cb cap]
+17.8 +9.4 58 +20  1016.4  1.2  701  263           
15 21.05.18 340 (С) 20000 м  {ливн. осадки, гроза}  9/3 600 м кучево-дожд., средняя 
[Cb calv|Ac As]
+18.2 +11.2 64 +23  1015.7  -0.5  701  262    +26.1       
18 21.05.18 360 (С) н/о    3/3 1000 м 
[Sc]
+17.4 +8.9 57 +19  1016.2  0.2  701  264    +26.1  0.0     
21 21.05.18 тихо ()   н/о    5/0 средняя 
[Ac As]
+14.9 +9.5 70 +17  1015.8  -1  700  266           
00 22.05.18 360 (С) 20000 м    8/3 600 м кучево-дожд., средняя 
[Cb cap|Ac As]
+14.5 +8.1 65 +16  1016.1  0.2  700  266           
03 22.05.18 090 (В) 20000 м    8/3 600 м кучево-дожд., средняя, верхняя 
[Cb calv|Ac As|Ci ing]
+21.2 +9 46 +22  1015.2  0.9  701  260           
06 22.05.18 160 (Ю) 20000 м    9/4 1000 м верхняя 
[Cu hum|Ci fib]
+23.5 +9.5 41 +25  1016.1  1.4  702  259  +14         
09 22.05.18 140 (ЮВ) 20000 м    9/5 1000 м средняя, верхняя 
[Cu hum|Ac cast|Ci fib]
+25.8 +7.3 31 +26  1014.7  -0.7  701  257           
12 22.05.18 140 (ЮВ) 20000 м    9/3 1000 м средняя, верхняя 
[Cu hum|Ac trans|Ci ing]
+25.4 +6.1 29 +25  1014.6  -0.2  701  257           
15 22.05.18 270 (З) 20000 м    9/9 1000 м 
[Sc]
+23 +9 41 +24  1015.1  -0.1  701  259    +26.4       
18 22.05.18 140 (ЮВ) н/о    5/0 средняя 
[Ac trans]
+19.1 +8.5 50 +21  1016.7  0.5  701  263    +26.4       
21 22.05.18 140 (ЮВ) н/о    6/0 верхняя 
[Ci fib]
+17.3 +9 58 +20  1016.9  -0.4  701  264           
Время (UTC), дата Ветер
(°,м/с) 
Видим.   Явления Облачность Т
(°С)
Тd
(°С)
f(%) Тe
(°С)
Pmin
(гПа)
dP
(гПа)
Po
(мм)
O2
(г/м3)
Тmin Tmax R s Состояние
почвы

Для получения пояснительной информации подведите курсор к названию столбца.

ПОГОДА в Самарканде - архив

Всё, что Вы хотите узнать о погоде в Самарканде - удобно и подробно!

Выберите нужную дату (начиная с 1 января 2015* года) и нажмите кнопку "Найти".
Будут отображены архивные сводки погоды по пункту Самарканд, начиная с указанной даты.


Отображать данные в формате CSV (для использования в таблицах Excel)


Внимание! Наш архив погоды предназначен исключительно для личного некоммерческого использования в познавательных целях. Если Вам необходимы официальные справки о состоянии погоды (для производственных, юридических, коммерческих и т.п. целей), обращайтесь в органы Росгидромета.

*Примечание: данная дата относится к архиву по метеостанциям СССР (Россия, СНГ, Балтия).
Архив по метеостанциям Зарубежной Европы и Азии (кроме Китая) хранится 10 дней, по другим регионам земного шара (Китай, Африка, Америка, Австралия, Океания) - 1 день.

Самарканд - район местоположения метеостанции


Название, широта, долгота, высота метеостанции:
Самарканд (город) 39.6°ш. 66.9°д. 724 м над ур. моря [Узбекистан]

Дополнительная информация

В oтличие oт бoльшинства пoгoдных сайтoв мы публикуем пoдрoбную метеoинфoрмацию в детальнoм прoфессиoнальнoм фoрмате.

Характеристики температуры и влажнoсти вoздуха измеряются на высoте 2 м в тени вдали oт зданий и деревьев.
Скoрoсть ветра измеряется на высoте 10 м (на урoвне рoста челoвека скoрoсть ветра ниже в 1.5-2 раза). Если метеoстанция нахoдится в гoрoде или в лесу, тo скoрoсть ветра занижена на 2-4 м/с пo сравнению с oткрытым местoм. Скoрoсть ветра над акватoриями крупных рек и oзёр, а также на вершинах хoлмoв на 2-5 м/с выше, чем в oбычных услoвиях.
Атмoсфернoе давление в разных тoчках местнoсти мoжет значительнo oтличаться oт давления на метеoстанции, в зависимoсти oт услoвий рельефа (при пoдъёме на 10 м давление пoнижается примернo на 1 мм рт.ст.).